SCOUT A DEB, 2140

Orbit data source: Space-Track

SCOUT A DEB, 2140 is space debris in LEO originally from a launch on Fri, 28 Jan 1966 UTC launched from the Air Force Western Test Range (AFWTR). Debris objects in space refer to the collection of defunct objects orbiting the Earth. Examples of debris include non-operational satellites, rocket bodies, and fragments generated from explosions, collisions, or faulty payload assembly.

Loading next visibility...
Identifier
2140, 1966-005C
Orbit
LEO
Country
Flag of USUS
Related business
Manufacturer
Unknown
Mission
Spacecraft
Bus & Motor
Unknown
Mass
Unknown
Launch date (UTC)
1966-01-28 (60 years ago)
Launch vehicle
Unknown
Launch site
Air Force Western Test Range (AFWTR)
Object type
Payload
Rocket body
Debris
Shape & HBR
Unknown shape, 0.1 m
Radar Cross Section
Small (<0.1 m²)

Expand to show TLE details & history
Last TLE update: 1 day ago

TLE from 1 day ago
0 SCOUT A DEB
1 02140U 66005C   26129.21436201  .00000055  00000-0  58242-4 0  9998
2 02140  89.9643  50.7255 0314350 298.4255  58.5547 13.48426019953204
Epoch: 2026-05-09T05:08Z
TLE epoch observation values (Epoch: 2026-05-09T05:08:40.877Z)
Latitude
-0.00002°
Longitude
106.52017°
Altitude
964.209 km
Speed
7.427 km/s
True Right ascension
03h 22m 54s
True Declination
0° 00' 00"
Sunlit
Object was in daylight at epoch
Visualization orbit readout
Latitude
Unknown
Longitude
Unknown
Altitude
Unknown
Speed
Unknown
Apparent Right ascension
Unknown
Apparent Declination
Unknown
Sunlit
N/A
Visualization observer readout
Local Sidereal Time
14:25:48
Azimuth
Unknown
Elevation
Unknown
Doppler factor
Unknown
Orbital elements
Apogee altitude
1,309.395 km
Perigee altitude
840.81 km
Semi-major axis
7,453.24 km
Eccentricity
0.03144
Inclination
89.9643°
RAAN
50.7255°
Arg. of periapsis
298.4255°
True anomaly
61.69055°
Mean anomaly
58.5547°
Eccentric anomaly
60.11632°
Mean motion
3.37307 °/min
Orbital period
106.73 mins
BSTAR
0.000058242
Loading maneuver chart data...
Computing Atmospheric mass density...
Loading historical data...
Loading historical data...
Loading historical data...
Loading historical data...
Loading historical data...
Loading historical data...
Loading historical data...

Documentation

Showing up to 5 results
|